Location: Newark
(25.4800°N, 85.7200°E)
Time: 03:19:00
(UTC+00:00)

Explorer 11/Cluster Stage 4 - Pass Details

Date: 23 August 2019
Orbit: 467 x 1260 km, 28.8° (Epoch: 19 September)

Event Time Altitude Azimuth Distance (km) Brightness Sun altitude
Rises 02:37:18 0° 224° (SW) 3,825 9.8 35.8°
Reaches altitude 10° 02:40:06 10° 216° (SW) 2,971 9.4 36.4°
Maximum altitude 02:47:00 39° 151° (SSE) 1,746 9.2 38.0°
Drops below altitude 10° 02:54:28 10° 86° (E) 3,232 10.9 39.7°
Sets 02:57:38 0° 79° (E) 4,193 11.1 40.4°
